User: anonymous   Login
Location: Byszew
(52.1813°N, 19.2693°E)
Time: 00:42:52
(UTC+00:00)
Language:

Cosmos 1777 Rocket - Orbit

View from above orbital plane
View from above orbital plane
View from above satellite
View from above satellite

Ground track
Ground track

The orbit data is extracted from the following two-line orbital elements,

1 16953U 86070B   21335.56824647 -.00000041  00000-0 -47762-5 0  9999
2 16953  74.0086 155.7740 0012520 343.7679  16.3071 14.37450182845773
Epoch (UTC): 01 December 2021 13:38:16
Eccentricity: 0.0012520
inclination: 74.0086°
perigee height: 758 km
apogee height: 776 km
right ascension of ascending node: 155.7740°
argument of perigee: 343.7679°
revolutions per day: 14.37450182
mean anomaly at epoch: 16.3071°
orbit number at epoch: 84577

The dashed part of the orbit path shows where the satellite is in the earth's shadow,  

DLR